sat.trackr.live / text

‹ back to catalog

STARLINK-37014

NORAD 68216 · 2026-053K

PAYLOAD ACTIVE UNKNOWN

§ Identity

Operator
Country
US
Launch date
2026-03-17
Launch site
AFWTR
Launch vehicle
Mass (kg)
RCS (m²)

Purposes: comms

External: N2YO · Heavens-Above · Gunter

§ Orbital elements

Epoch: 2026-09-20T02:52:24.316032Z

Period
93.91 min
Inclination
97.2849°
Eccentricity
0.0002247
Mean motion
15.33451935 rev/d
Perigee alt
464.0 km
Apogee alt
467.1 km
Semi-major
6,843.7 km
B*
4.0131e-4
RAAN
136.8812°
Arg perigee
96.2653°
Mean anomaly
263.8845°
Rev number
3,001

§ Raw data

STARLINK-370141 68216U 26053K   26263.11972588  .00012906  00000+0  40131-3 0  99982 68216  97.2849 136.8812 0002247  96.2653 263.8845 15.33451935 30018

JSON: /api/v1/satellites/68216 · /tle

For live sub-satellite position, see the globe view (requires WebGL).

§ Visibility from observer

Set your observer location to see the next 7 days of passes ≥ 10°. The values pass through the URL so the page stays shareable.

No JS? Fill the form by hand. The geolocation button needs JavaScript.